UAL236 CYYZ-TNCM

Flight info

Callsign UAL236
Flight time N/A
Altitude 37000
Route RIGUS5 PSB J61 EMI Q119 SCOOB DCT KEMPR DCT ECG AR8 OXANA/M083F370 L452 KASAR DCT LAMER/N0483F370 DCT FIPEK Y355 SLUGO
Aircraft B77W/H-SDE2E3FGHIJ5LORVWXY/LB1D1

Departure

Time 2026-05-07 23:43
Airport Toronto Pearson International Airport (CYYZ)

Arrival

Time N/A
Airport Princess Juliana International Airport (TNCM)
Time Latitude Longitude Altitude Speed Heading
2026-05-07 22:54 43.67900 -79.61544 576 ft 0 kts 317°
2026-05-07 23:27 43.67898 -79.61541 576 ft 2 kts 317°
2026-05-07 23:27 43.67887 -79.61528 576 ft 2 kts 317°
2026-05-07 23:28 43.67880 -79.61519 576 ft 2 kts 316°
2026-05-07 23:28 43.67871 -79.61503 575 ft 2 kts 285°
2026-05-07 23:28 43.67869 -79.61482 575 ft 2 kts 258°
2026-05-07 23:28 43.67875 -79.61464 575 ft 1 kts 232°
2026-05-07 23:29 43.67879 -79.61457 575 ft 1 kts 227°
2026-05-07 23:34 43.67876 -79.61462 575 ft 2 kts 227°
2026-05-07 23:34 43.67851 -79.61499 575 ft 7 kts 227°
2026-05-07 23:35 43.67804 -79.61569 575 ft 10 kts 227°
2026-05-07 23:35 43.67747 -79.61632 575 ft 10 kts 190°
2026-05-07 23:35 43.67672 -79.61649 574 ft 11 kts 199°
2026-05-07 23:35 43.67601 -79.61709 573 ft 12 kts 212°
2026-05-07 23:36 43.67525 -79.61705 572 ft 11 kts 152°
2026-05-07 23:36 43.67456 -79.61629 571 ft 13 kts 137°
2026-05-07 23:36 43.67383 -79.61535 568 ft 15 kts 136°
2026-05-07 23:36 43.67303 -79.61432 566 ft 16 kts 136°
2026-05-07 23:37 43.67255 -79.61370 565 ft 9 kts 136°
2026-05-07 23:37 43.67196 -79.61361 564 ft 10 kts 208°
2026-05-07 23:37 43.67134 -79.61426 563 ft 11 kts 220°
2026-05-07 23:37 43.67072 -79.61502 563 ft 12 kts 224°
2026-05-07 23:38 43.67007 -79.61583 562 ft 12 kts 220°
2026-05-07 23:38 43.66938 -79.61668 561 ft 13 kts 221°
2026-05-07 23:38 43.66866 -79.61757 560 ft 14 kts 221°
2026-05-07 23:38 43.66789 -79.61852 558 ft 15 kts 221°
2026-05-07 23:39 43.66706 -79.61956 556 ft 16 kts 221°
2026-05-07 23:39 43.66617 -79.62066 554 ft 17 kts 221°
2026-05-07 23:39 43.66525 -79.62186 551 ft 18 kts 224°
2026-05-07 23:39 43.66471 -79.62259 549 ft 9 kts 224°
2026-05-07 23:40 43.66418 -79.62330 546 ft 12 kts 222°
2026-05-07 23:40 43.66387 -79.62368 545 ft 5 kts 221°
2026-05-07 23:40 43.66346 -79.62412 543 ft 9 kts 216°
2026-05-07 23:40 43.66294 -79.62456 541 ft 3 kts 180°
2026-05-07 23:41 43.66273 -79.62438 541 ft 4 kts 133°
2026-05-07 23:41 43.66247 -79.62400 540 ft 6 kts 132°
2026-05-07 23:41 43.66214 -79.62350 540 ft 7 kts 132°
2026-05-07 23:41 43.66188 -79.62288 540 ft 7 kts 102°
2026-05-07 23:42 43.66196 -79.62225 542 ft 5 kts 59°
2026-05-07 23:42 43.66197 -79.62223 542 ft 0 kts 57°
2026-05-07 23:42 43.66400 -79.61917 550 ft 91 kts 46°
2026-05-07 23:42 43.67039 -79.60983 609 ft 169 kts 44°
2026-05-07 23:43 43.67899 -79.59714 1398 ft 188 kts 45°
2026-05-07 23:43 43.68729 -79.58451 2522 ft 183 kts 43°
2026-05-07 23:43 43.69642 -79.57102 3067 ft 203 kts 43°
2026-05-07 23:43 43.70642 -79.55621 3690 ft 220 kts 43°
2026-05-07 23:44 43.71691 -79.54018 4400 ft 235 kts 51°
2026-05-07 23:44 43.72296 -79.51839 4962 ft 259 kts 86°
2026-05-07 23:44 43.71881 -79.49367 5507 ft 278 kts 120°
2026-05-07 23:44 43.70825 -79.47107 6346 ft 285 kts 126°
2026-05-07 23:45 43.69695 -79.44876 7356 ft 287 kts 127°
2026-05-07 23:45 43.68546 -79.42622 8282 ft 292 kts 127°
2026-05-07 23:45 43.67219 -79.40512 9093 ft 294 kts 147°
2026-05-07 23:45 43.65400 -79.39336 9872 ft 289 kts 174°
2026-05-07 23:46 43.63431 -79.39350 10593 ft 287 kts 197°
2026-05-07 23:46 43.61519 -79.40348 10963 ft 302 kts 209°
2026-05-07 23:46 43.59591 -79.41708 11462 ft 318 kts 211°
2026-05-07 23:46 43.57574 -79.43164 11935 ft 334 kts 211°
2026-05-07 23:47 43.55486 -79.44711 12345 ft 348 kts 214°
2026-05-07 23:47 43.53472 -79.46682 12769 ft 361 kts 220°
2026-05-07 23:47 43.51475 -79.48806 13490 ft 366 kts 220°
2026-05-07 23:47 43.49411 -79.50861 14313 ft 370 kts 214°
2026-05-07 23:48 43.47131 -79.52529 15043 ft 376 kts 209°
2026-05-07 23:48 43.44760 -79.54101 15719 ft 382 kts 208°
2026-05-07 23:48 43.42357 -79.55687 16433 ft 386 kts 208°
2026-05-07 23:48 43.39932 -79.57287 17167 ft 389 kts 208°
2026-05-07 23:49 43.37479 -79.58906 17839 ft 394 kts 209°
2026-05-07 23:49 43.35006 -79.60537 18495 ft 398 kts 209°
2026-05-07 23:49 43.32504 -79.62187 19133 ft 401 kts 209°
2026-05-07 23:49 43.29988 -79.63844 19825 ft 404 kts 209°
2026-05-07 23:50 43.27429 -79.65462 20471 ft 409 kts 205°
2026-05-07 23:50 43.24699 -79.66647 21060 ft 417 kts 197°
2026-05-07 23:50 43.21803 -79.67270 21638 ft 425 kts 188°
2026-05-07 23:50 43.18826 -79.67351 22208 ft 431 kts 184°
2026-05-07 23:51 43.15816 -79.67297 22752 ft 434 kts 184°
2026-05-07 23:51 43.12789 -79.67239 23348 ft 436 kts 184°
2026-05-07 23:51 43.09754 -79.67187 23903 ft 438 kts 184°
2026-05-07 23:51 43.06687 -79.67137 24388 ft 442 kts 184°
2026-05-07 23:52 43.03614 -79.67089 24848 ft 444 kts 184°
2026-05-07 23:52 43.00514 -79.67042 25304 ft 446 kts 185°
2026-05-07 23:52 42.97412 -79.66997 25729 ft 448 kts 185°
2026-05-07 23:52 42.94292 -79.66952 26090 ft 451 kts 185°
2026-05-07 23:53 42.91147 -79.66908 26450 ft 453 kts 186°
2026-05-07 23:53 42.87967 -79.66864 26817 ft 455 kts 186°
2026-05-07 23:53 42.84779 -79.66973 27181 ft 453 kts 191°
2026-05-07 23:53 42.81591 -79.67310 27482 ft 455 kts 192°
2026-05-07 23:54 42.78431 -79.67660 27831 ft 457 kts 192°
2026-05-07 23:54 42.75183 -79.68017 28212 ft 458 kts 192°
2026-05-07 23:54 42.71975 -79.68370 28540 ft 460 kts 192°
2026-05-07 23:54 42.68745 -79.68723 28882 ft 461 kts 193°
2026-05-07 23:55 42.65509 -79.69075 29246 ft 462 kts 193°
2026-05-07 23:55 42.62284 -79.69425 29642 ft 461 kts 194°
2026-05-07 23:55 42.59074 -79.69772 30067 ft 459 kts 194°
2026-05-07 23:55 42.55867 -79.70118 30535 ft 457 kts 194°
2026-05-07 23:56 42.52655 -79.70468 30850 ft 458 kts 194°
2026-05-07 23:56 42.49407 -79.70820 31145 ft 460 kts 194°
2026-05-07 23:56 42.46190 -79.71168 31475 ft 460 kts 194°
2026-05-07 23:56 42.42993 -79.71513 31771 ft 460 kts 194°
2026-05-07 23:57 42.39800 -79.71809 32038 ft 466 kts 191°
2026-05-07 23:57 42.36505 -79.71588 32295 ft 479 kts 183°
2026-05-07 23:57 42.33164 -79.70677 32587 ft 492 kts 174°
2026-05-07 23:57 42.29896 -79.69053 32887 ft 505 kts 165°
2026-05-07 23:58 42.26770 -79.66715 33078 ft 521 kts 155°
2026-05-07 23:58 42.23865 -79.63631 33302 ft 535 kts 145°
2026-05-07 23:58 42.21162 -79.60148 33653 ft 535 kts 143°
2026-05-07 23:58 42.18486 -79.56643 33938 ft 536 kts 143°
2026-05-07 23:59 42.15791 -79.53138 34169 ft 537 kts 143°
2026-05-07 23:59 42.13097 -79.49656 34464 ft 536 kts 144°
2026-05-07 23:59 42.10401 -79.46187 34867 ft 532 kts 144°
2026-05-07 23:59 42.07707 -79.42737 35182 ft 531 kts 144°
2026-05-08 00:00 42.05017 -79.39306 35436 ft 531 kts 144°
2026-05-08 00:00 42.02322 -79.35880 35650 ft 532 kts 144°
2026-05-08 00:00 41.99588 -79.32413 35879 ft 532 kts 144°
2026-05-08 00:00 41.96873 -79.28977 36063 ft 532 kts 145°
2026-05-08 00:01 41.94145 -79.25531 36288 ft 531 kts 145°
2026-05-08 00:01 41.91426 -79.22101 36558 ft 529 kts 144°
2026-05-08 00:01 41.88684 -79.18650 36729 ft 530 kts 144°
2026-05-08 00:01 41.85966 -79.15234 36874 ft 530 kts 144°
2026-05-08 00:02 41.80524 -79.08411 36881 ft 532 kts 145°
2026-05-08 00:02 41.75048 -79.01565 36887 ft 537 kts 145°
2026-05-08 00:03 41.69478 -78.94618 36886 ft 541 kts 145°
2026-05-08 00:03 41.63906 -78.87686 36887 ft 545 kts 145°
2026-05-08 00:04 41.58281 -78.80704 36879 ft 549 kts 145°
2026-05-08 00:04 41.52616 -78.73690 36892 ft 551 kts 145°
2026-05-08 00:05 41.46923 -78.66659 36900 ft 553 kts 145°
2026-05-08 00:05 41.41229 -78.59644 36889 ft 553 kts 145°
2026-05-08 00:06 41.35509 -78.52615 36890 ft 554 kts 145°
2026-05-08 00:06 41.29853 -78.45680 36906 ft 552 kts 146°
2026-05-08 00:07 41.24181 -78.38747 36890 ft 554 kts 146°
2026-05-08 00:07 41.18487 -78.31802 36886 ft 552 kts 146°
2026-05-08 00:08 41.12772 -78.24847 36880 ft 551 kts 147°
2026-05-08 00:08 41.07065 -78.17923 36884 ft 552 kts 147°
2026-05-08 00:09 41.01329 -78.10979 36892 ft 552 kts 147°
2026-05-08 00:09 40.95636 -78.04104 36884 ft 551 kts 147°
2026-05-08 00:10 40.89592 -77.97919 36891 ft 531 kts 160°
2026-05-08 00:10 40.83121 -77.93104 36891 ft 529 kts 161°
2026-05-08 00:11 40.76650 -77.88374 36898 ft 530 kts 161°
2026-05-08 00:11 40.70110 -77.83614 36898 ft 531 kts 161°
2026-05-08 00:12 40.63595 -77.78884 36899 ft 529 kts 161°
2026-05-08 00:12 40.57075 -77.74166 36894 ft 530 kts 162°
2026-05-08 00:13 40.50545 -77.69453 36900 ft 530 kts 162°
2026-05-08 00:13 40.43982 -77.64727 36884 ft 530 kts 162°
2026-05-08 00:14 40.37517 -77.60081 36754 ft 529 kts 162°
2026-05-08 00:14 40.34299 -77.57772 36890 ft 527 kts 162°
2026-05-08 00:14 40.31059 -77.55452 36914 ft 528 kts 162°
2026-05-08 00:15 40.24587 -77.50823 36910 ft 529 kts 162°
2026-05-08 00:15 40.18100 -77.46196 36881 ft 531 kts 162°
2026-05-08 00:16 40.11615 -77.41577 36890 ft 529 kts 162°
2026-05-08 00:16 40.05129 -77.36968 36879 ft 528 kts 162°
2026-05-08 00:17 39.98657 -77.32435 37334 ft 511 kts 164°
2026-05-08 00:17 39.95533 -77.30347 38307 ft 483 kts 166°
2026-05-08 00:17 39.92653 -77.28501 40108 ft 432 kts 168°
2026-05-08 00:18 39.90085 -77.26939 41464 ft 391 kts 171°
2026-05-08 00:18 39.87575 -77.25566 41128 ft 394 kts 173°
2026-05-08 00:18 39.84863 -77.24350 39326 ft 432 kts 177°
2026-05-08 00:18 39.81831 -77.23351 37675 ft 460 kts 181°
2026-05-08 00:19 39.78608 -77.22621 37156 ft 462 kts 185°
2026-05-08 00:19 39.75433 -77.22175 37683 ft 440 kts 189°
2026-05-08 00:19 39.72545 -77.21996 39293 ft 390 kts 193°
2026-05-08 00:19 39.69980 -77.22030 40710 ft 345 kts 198°
2026-05-08 00:20 39.67725 -77.22269 40551 ft 341 kts 202°
2026-05-08 00:20 39.65303 -77.22842 38947 ft 372 kts 207°
2026-05-08 00:20 39.62737 -77.23876 37401 ft 397 kts 212°
2026-05-08 00:20 39.60177 -77.25324 37125 ft 392 kts 218°
2026-05-08 00:21 39.59514 -77.25765 37300 ft 384 kts 219°